This is the latest recevied weather packets stored in our database for station/object KA7EII-13. If no packets are shown the sender has not sent any weather packets the latest 10 day(s).
| Time | Temp. | Humidity | Pressure | Rain* | Wind** | Luminosity | Snow |
|---|---|---|---|---|---|---|---|
| 1777995860 | 12.22° C | 41% | 1100.8 hPa | 0 mm | - | 522 W/m² | - |
| 1777995556 | 11.11° C | 43% | 1100.8 hPa | 0 mm | - | 482 W/m² | - |
| 1777995254 | 11.67° C | 42% | 1100.9 hPa | 0 mm | - | 426 W/m² | - |
| 1777994950 | 11.11° C | 43% | 1101.1 hPa | 0 mm | - | 386 W/m² | - |
| 1777994648 | 11.11° C | 44% | 1101.1 hPa | 0 mm | - | 386 W/m² | - |
| 1777994341 | 10.56° C | 45% | 1101.2 hPa | 0 mm | - | 375 W/m² | - |
| 1777994038 | 10.56° C | 43% | 1100.7 hPa | 0 mm | - | 358 W/m² | - |
| 1777993735 | 10.56° C | 45% | 1101.2 hPa | 0 mm | - | 339 W/m² | - |
| 1777993432 | 10° C | 46% | 1100.9 hPa | 0 mm | - | 311 W/m² | - |
| 1777993126 | 9.44° C | 47% | 1101.2 hPa | 0 mm | - | 309 W/m² | - |
| 1777992825 | 10° C | 47% | 1101.1 hPa | 0 mm | - | 325 W/m² | - |
| 1777992522 | 9.44° C | 47% | 1101.1 hPa | 0 mm | - | 304 W/m² | - |
| 1777992221 | 8.89° C | 48% | 1100.9 hPa | 0 mm | - | 273 W/m² | - |
| 1777991917 | 8.89° C | 48% | 1101.3 hPa | 0 mm | - | 256 W/m² | - |
| 1777991615 | 8.89° C | 48% | 1101.1 hPa | 0 mm | - | 239 W/m² | - |
| 1777991312 | 8.89° C | 48% | 1101.2 hPa | 0 mm | - | 222 W/m² | - |
| 1777991009 | 8.33° C | 49% | 1101.3 hPa | 0 mm | - | 135 W/m² | - |
| 1777990706 | 8.33° C | 49% | 1101.2 hPa | 0 mm | - | 233 W/m² | - |
| 1777990404 | 7.78° C | 52% | 1101.4 hPa | 0 mm | - | 248 W/m² | - |
| 1777989796 | 7.22° C | 51% | 1101.5 hPa | 0 mm | - | 113 W/m² | - |
| 1777989494 | 7.22° C | 52% | 1100.9 hPa | 0 mm | - | 91 W/m² | - |
| 1777989189 | 6.67° C | 52% | 1101.2 hPa | 0 mm | - | 75 W/m² | - |
| 1777988886 | 6.67° C | 53% | 1101.3 hPa | 0 mm | - | 66 W/m² | - |
| 1777988583 | 6.67° C | 53% | 1101.3 hPa | 0 mm | - | 61 W/m² | - |
| 1777988279 | 6.67° C | 54% | 1101.1 hPa | 0 mm | - | 55 W/m² | - |
* Rain latest hour (hover to see other rain measurements)
** Current wind speed in m/s (hover to see current wind gust speed)